Year,Month,Day,Hour,Minute,Value (Times are PST for temperature in C)
2006,06,26,00,00,20.60
2006,06,26,00,01,20.60
2006,06,26,00,02,20.60
2006,06,26,00,03,20.60
2006,06,26,00,04,20.60
2006,06,26,00,05,20.60
2006,06,26,00,06,20.60
2006,06,26,00,07,20.60
2006,06,26,00,08,20.60
2006,06,26,00,09,20.60
2006,06,26,00,10,20.60
2006,06,26,00,11,20.60
2006,06,26,00,12,20.60
2006,06,26,00,13,20.60
2006,06,26,00,14,20.60
2006,06,26,00,15,20.60
2006,06,26,00,16,20.60
2006,06,26,00,17,20.60
2006,06,26,00,18,20.60
2006,06,26,00,19,20.60
2006,06,26,00,20,20.60
2006,06,26,00,21,20.60
2006,06,26,00,22,20.50
2006,06,26,00,23,20.50
2006,06,26,00,24,20.50
2006,06,26,00,25,20.50
2006,06,26,00,26,20.50
2006,06,26,00,27,20.50
2006,06,26,00,28,20.50
2006,06,26,00,29,20.50
2006,06,26,00,30,20.50
2006,06,26,00,31,20.50
2006,06,26,00,32,20.50
2006,06,26,00,33,20.50
2006,06,26,00,34,20.50
2006,06,26,00,35,20.50
2006,06,26,00,36,20.50
2006,06,26,00,37,20.40
2006,06,26,00,38,20.40
2006,06,26,00,39,20.40
2006,06,26,00,40,20.40
2006,06,26,00,41,20.40
2006,06,26,00,42,20.30
2006,06,26,00,43,20.30
2006,06,26,00,44,20.30
2006,06,26,00,45,20.30
2006,06,26,00,46,20.30
2006,06,26,00,47,20.30
2006,06,26,00,48,20.20
2006,06,26,00,49,20.20
2006,06,26,00,50,20.20
2006,06,26,00,51,20.20
2006,06,26,00,52,20.20
2006,06,26,00,53,20.10
2006,06,26,00,54,20.10
2006,06,26,00,55,20.10
2006,06,26,00,56,20.00
2006,06,26,00,57,19.90
2006,06,26,00,58,19.90
2006,06,26,00,59,19.90
2006,06,26,01,00,19.90
2006,06,26,01,01,19.90
2006,06,26,01,02,19.90
2006,06,26,01,03,19.90
2006,06,26,01,04,19.80
2006,06,26,01,05,19.80
2006,06,26,01,06,19.80
2006,06,26,01,07,19.70
2006,06,26,01,08,19.70
2006,06,26,01,09,19.70
2006,06,26,01,10,19.60
2006,06,26,01,11,19.60
2006,06,26,01,12,19.60
2006,06,26,01,13,19.60
2006,06,26,01,14,19.50
2006,06,26,01,15,19.50
2006,06,26,01,16,19.50
2006,06,26,01,17,19.50
2006,06,26,01,18,19.40
2006,06,26,01,19,19.40
2006,06,26,01,20,19.40
2006,06,26,01,21,19.40
2006,06,26,01,22,19.30
2006,06,26,01,23,19.30
2006,06,26,01,24,19.30
2006,06,26,01,25,19.30
2006,06,26,01,26,19.20
2006,06,26,01,27,19.20
2006,06,26,01,28,19.20
2006,06,26,01,29,19.20
2006,06,26,01,30,19.10
2006,06,26,01,31,19.10
2006,06,26,01,32,19.20
2006,06,26,01,33,19.20
2006,06,26,01,34,19.20
2006,06,26,01,35,19.20
2006,06,26,01,36,19.20
2006,06,26,01,37,19.30
2006,06,26,01,38,19.30
2006,06,26,01,39,19.40
2006,06,26,01,40,19.40
2006,06,26,01,41,19.50
2006,06,26,01,42,19.60
2006,06,26,01,43,19.60
2006,06,26,01,44,19.70
2006,06,26,01,45,19.70
2006,06,26,01,46,19.70
2006,06,26,01,47,19.70
2006,06,26,01,48,19.80
2006,06,26,01,49,19.80
2006,06,26,01,50,19.80
2006,06,26,01,51,19.80
2006,06,26,01,52,19.70
2006,06,26,01,53,19.80
2006,06,26,01,54,19.70
2006,06,26,01,55,19.80
2006,06,26,01,56,19.80
2006,06,26,01,57,19.80
2006,06,26,01,58,19.80
2006,06,26,01,59,19.80
2006,06,26,02,00,19.80
2006,06,26,02,01,19.80
2006,06,26,02,02,19.80
2006,06,26,02,03,19.80
2006,06,26,02,04,19.80
2006,06,26,02,05,19.80
2006,06,26,02,06,19.80
2006,06,26,02,07,19.80
2006,06,26,02,08,19.80
2006,06,26,02,09,19.90
2006,06,26,02,10,19.90
2006,06,26,02,11,19.90
2006,06,26,02,12,19.90
2006,06,26,02,13,19.90
2006,06,26,02,14,19.90
2006,06,26,02,15,19.90
2006,06,26,02,16,19.90
2006,06,26,02,17,19.90
2006,06,26,02,18,19.90
2006,06,26,02,19,19.90
2006,06,26,02,20,20.00
2006,06,26,02,21,20.10
2006,06,26,02,22,20.10
2006,06,26,02,23,20.10
2006,06,26,02,24,20.10
2006,06,26,02,25,20.10
2006,06,26,02,26,20.10
2006,06,26,02,27,20.00
2006,06,26,02,28,19.90
2006,06,26,02,29,19.90
2006,06,26,02,30,19.90
2006,06,26,02,31,19.90
2006,06,26,02,32,19.90
2006,06,26,02,33,19.80
2006,06,26,02,34,19.80
2006,06,26,02,35,19.70
2006,06,26,02,36,19.60
2006,06,26,02,37,19.60
2006,06,26,02,38,19.50
2006,06,26,02,39,19.40
2006,06,26,02,40,19.40
2006,06,26,02,41,19.30
2006,06,26,02,42,19.30
2006,06,26,02,43,19.20
2006,06,26,02,44,19.10
2006,06,26,02,45,19.10
2006,06,26,02,46,19.10
2006,06,26,02,47,19.10
2006,06,26,02,48,19.00
2006,06,26,02,49,18.90
2006,06,26,02,50,18.90
2006,06,26,02,51,18.90
2006,06,26,02,52,18.90
2006,06,26,02,53,18.90
2006,06,26,02,54,18.90
2006,06,26,02,55,18.90
2006,06,26,02,56,18.90
2006,06,26,02,57,18.90
2006,06,26,02,58,18.80
2006,06,26,02,59,18.80
2006,06,26,03,00,18.70
2006,06,26,03,01,18.70
2006,06,26,03,02,18.60
2006,06,26,03,03,18.60
2006,06,26,03,04,18.50
2006,06,26,03,05,18.50
2006,06,26,03,06,18.50
2006,06,26,03,07,18.40
2006,06,26,03,08,18.40
2006,06,26,03,09,18.30
2006,06,26,03,10,18.30
2006,06,26,03,11,18.20
2006,06,26,03,12,18.20
2006,06,26,03,13,18.20
2006,06,26,03,14,18.20
2006,06,26,03,15,18.20
2006,06,26,03,16,18.20
2006,06,26,03,17,18.20
2006,06,26,03,18,18.20
2006,06,26,03,19,18.20
2006,06,26,03,20,18.20
2006,06,26,03,21,18.20
2006,06,26,03,22,18.20
2006,06,26,03,23,18.20
2006,06,26,03,24,18.30
2006,06,26,03,25,18.30
2006,06,26,03,26,18.30
2006,06,26,03,27,18.30
2006,06,26,03,28,18.30
2006,06,26,03,29,18.30
2006,06,26,03,30,18.30
2006,06,26,03,31,18.30
2006,06,26,03,32,18.20
2006,06,26,03,33,18.20
2006,06,26,03,34,18.20
2006,06,26,03,35,18.20
2006,06,26,03,36,18.20
2006,06,26,03,37,18.20
2006,06,26,03,38,18.20
2006,06,26,03,39,18.10
2006,06,26,03,40,18.10
2006,06,26,03,41,18.10
2006,06,26,03,42,18.10
2006,06,26,03,43,18.00
2006,06,26,03,44,17.90
2006,06,26,03,45,17.90
2006,06,26,03,46,17.90
2006,06,26,03,47,17.90
2006,06,26,03,48,17.90
2006,06,26,03,49,17.90
2006,06,26,03,50,17.80
2006,06,26,03,51,17.80
2006,06,26,03,52,17.80
2006,06,26,03,53,17.70
2006,06,26,03,54,17.70
2006,06,26,03,55,17.70
2006,06,26,03,56,17.60
2006,06,26,03,57,17.60
2006,06,26,03,58,17.60
2006,06,26,03,59,17.60
2006,06,26,04,00,17.50
2006,06,26,04,01,17.50
2006,06,26,04,02,17.50
2006,06,26,04,03,17.50
2006,06,26,04,04,17.40
2006,06,26,04,05,17.40
2006,06,26,04,06,17.40
2006,06,26,04,07,17.40
2006,06,26,04,08,17.40
2006,06,26,04,09,17.40
2006,06,26,04,10,17.40
2006,06,26,04,11,17.40
2006,06,26,04,12,17.40
2006,06,26,04,13,17.30
2006,06,26,04,14,17.30
2006,06,26,04,15,17.30
2006,06,26,04,16,17.30
2006,06,26,04,17,17.30
2006,06,26,04,18,17.30
2006,06,26,04,19,17.30
2006,06,26,04,20,17.30
2006,06,26,04,21,17.30
2006,06,26,04,22,17.30
2006,06,26,04,23,17.30
2006,06,26,04,24,17.30
2006,06,26,04,25,17.30
2006,06,26,04,26,17.30
2006,06,26,04,27,17.20
2006,06,26,04,28,17.20
2006,06,26,04,29,17.20
2006,06,26,04,30,17.20
2006,06,26,04,31,17.20
2006,06,26,04,32,17.10
2006,06,26,04,33,17.10
2006,06,26,04,34,17.10
2006,06,26,04,35,17.00
2006,06,26,04,36,17.00
2006,06,26,04,37,17.00
2006,06,26,04,38,17.00
2006,06,26,04,39,17.00
2006,06,26,04,40,17.00
2006,06,26,04,41,16.90
2006,06,26,04,42,16.90
2006,06,26,04,43,16.90
2006,06,26,04,44,16.90
2006,06,26,04,45,16.90
2006,06,26,04,46,16.90
2006,06,26,04,47,16.90
2006,06,26,04,48,16.90
2006,06,26,04,49,16.90
2006,06,26,04,50,16.90
2006,06,26,04,51,16.90
2006,06,26,04,52,16.90
2006,06,26,04,53,16.90
2006,06,26,04,54,16.80
2006,06,26,04,55,16.80
2006,06,26,04,56,16.80
2006,06,26,04,57,16.80
2006,06,26,04,58,16.70
2006,06,26,04,59,16.70
2006,06,26,05,00,16.70
2006,06,26,05,01,16.70
2006,06,26,05,02,16.70
2006,06,26,05,03,16.70
2006,06,26,05,04,16.70
2006,06,26,05,05,16.70
2006,06,26,05,06,16.70
2006,06,26,05,07,16.70
2006,06,26,05,08,16.70
2006,06,26,05,09,16.70
2006,06,26,05,10,16.70
2006,06,26,05,11,16.70
2006,06,26,05,12,16.70
2006,06,26,05,13,16.70
2006,06,26,05,14,16.70
2006,06,26,05,15,16.70
2006,06,26,05,16,16.70
2006,06,26,05,17,16.70
2006,06,26,05,18,16.70
2006,06,26,05,19,16.70
2006,06,26,05,20,16.70
2006,06,26,05,21,16.70
2006,06,26,05,22,16.70
2006,06,26,05,23,16.70
2006,06,26,05,24,16.60
2006,06,26,05,25,16.60
2006,06,26,05,26,16.60
2006,06,26,05,27,16.60
2006,06,26,05,28,16.60
2006,06,26,05,29,16.60
2006,06,26,05,30,16.60
2006,06,26,05,31,16.60
2006,06,26,05,32,16.60
2006,06,26,05,33,16.70
2006,06,26,05,34,16.70
2006,06,26,05,35,16.70
2006,06,26,05,36,16.70
2006,06,26,05,37,16.70
2006,06,26,05,38,16.70
2006,06,26,05,39,16.70
2006,06,26,05,40,16.70
2006,06,26,05,41,16.70
2006,06,26,05,42,16.70
2006,06,26,05,43,16.70
2006,06,26,05,44,16.70
2006,06,26,05,45,16.80
2006,06,26,05,46,16.80
2006,06,26,05,47,16.90
2006,06,26,05,48,17.00
2006,06,26,05,49,17.10
2006,06,26,05,50,17.20
2006,06,26,05,51,17.20
2006,06,26,05,52,17.30
2006,06,26,05,53,17.30
2006,06,26,05,54,17.30
2006,06,26,05,55,17.40
2006,06,26,05,56,17.40
2006,06,26,05,57,17.50
2006,06,26,05,58,17.50
2006,06,26,05,59,17.60
2006,06,26,06,00,17.70
2006,06,26,06,01,17.70
2006,06,26,06,02,17.80
2006,06,26,06,03,17.80
2006,06,26,06,04,17.90
2006,06,26,06,05,17.90
2006,06,26,06,06,17.90
2006,06,26,06,07,17.90
2006,06,26,06,08,17.80
2006,06,26,06,09,17.80
2006,06,26,06,10,17.70
2006,06,26,06,11,17.60
2006,06,26,06,12,17.50
2006,06,26,06,13,17.40
2006,06,26,06,14,17.30
2006,06,26,06,15,17.30
2006,06,26,06,16,17.30
2006,06,26,06,17,17.30
2006,06,26,06,18,17.20
2006,06,26,06,19,17.20
2006,06,26,06,20,17.10
2006,06,26,06,21,17.10
2006,06,26,06,22,17.10
2006,06,26,06,23,17.10
2006,06,26,06,24,17.00
2006,06,26,06,25,17.00
2006,06,26,06,26,17.00
2006,06,26,06,27,17.00
2006,06,26,06,28,17.00
2006,06,26,06,29,16.90
2006,06,26,06,30,16.90
2006,06,26,06,31,16.90
2006,06,26,06,32,16.90
2006,06,26,06,33,16.90
2006,06,26,06,34,16.90
2006,06,26,06,35,16.90
2006,06,26,06,36,16.90
2006,06,26,06,37,17.00
2006,06,26,06,38,17.10
2006,06,26,06,39,17.20
2006,06,26,06,40,17.30
2006,06,26,06,41,17.40
2006,06,26,06,42,17.60
2006,06,26,06,43,17.70
2006,06,26,06,44,17.80
2006,06,26,06,45,17.90
2006,06,26,06,46,17.90
2006,06,26,06,47,18.00
2006,06,26,06,48,18.10
2006,06,26,06,49,18.20
2006,06,26,06,50,18.20
2006,06,26,06,51,18.30
2006,06,26,06,52,18.40
2006,06,26,06,53,18.40
2006,06,26,06,54,18.40
2006,06,26,06,55,18.40
2006,06,26,06,56,18.40
2006,06,26,06,57,18.50
2006,06,26,06,58,18.50
2006,06,26,06,59,18.60
2006,06,26,07,00,18.60
2006,06,26,07,01,18.60
2006,06,26,07,02,18.60
2006,06,26,07,03,18.60
2006,06,26,07,04,18.70
2006,06,26,07,05,18.70
2006,06,26,07,06,18.80
2006,06,26,07,07,18.80
2006,06,26,07,08,18.80
2006,06,26,07,09,18.90
2006,06,26,07,10,18.90
2006,06,26,07,11,18.90
2006,06,26,07,12,19.10
2006,06,26,07,13,19.10
2006,06,26,07,14,19.10
2006,06,26,07,15,19.20
2006,06,26,07,16,19.20
2006,06,26,07,17,19.30
2006,06,26,07,18,19.30
2006,06,26,07,19,19.40
2006,06,26,07,20,19.40
2006,06,26,07,21,19.50
2006,06,26,07,22,19.50
2006,06,26,07,23,19.60
2006,06,26,07,24,19.70
2006,06,26,07,25,19.70
2006,06,26,07,26,19.80
2006,06,26,07,27,19.90
2006,06,26,07,28,19.90
2006,06,26,07,29,19.90
2006,06,26,07,30,20.00
2006,06,26,07,31,20.10
2006,06,26,07,32,20.20
2006,06,26,07,33,20.20
2006,06,26,07,34,20.20
2006,06,26,07,35,20.30
2006,06,26,07,36,20.40
2006,06,26,07,37,20.40
2006,06,26,07,38,20.50
2006,06,26,07,39,20.50
2006,06,26,07,40,20.60
2006,06,26,07,41,20.70
2006,06,26,07,42,20.80
2006,06,26,07,43,20.90
2006,06,26,07,44,21.00
2006,06,26,07,45,21.00
2006,06,26,07,46,21.20
2006,06,26,07,47,21.20
2006,06,26,07,48,21.30
2006,06,26,07,49,21.30
2006,06,26,07,50,21.40
2006,06,26,07,51,21.50
2006,06,26,07,52,21.60
2006,06,26,07,53,21.60
2006,06,26,07,54,21.70
2006,06,26,07,55,21.70
2006,06,26,07,56,21.80
2006,06,26,07,57,21.90
2006,06,26,07,58,22.00
2006,06,26,07,59,22.00
2006,06,26,08,00,22.10
2006,06,26,08,01,22.20
2006,06,26,08,02,22.20
2006,06,26,08,03,22.30
2006,06,26,08,04,22.30
2006,06,26,08,05,22.40
2006,06,26,08,06,22.40
2006,06,26,08,07,22.50
2006,06,26,08,08,22.60
2006,06,26,08,09,22.70
2006,06,26,08,10,22.80
2006,06,26,08,11,22.80
2006,06,26,08,12,22.90
2006,06,26,08,13,23.00
2006,06,26,08,14,23.10
2006,06,26,08,15,23.00
2006,06,26,08,16,23.00
2006,06,26,08,17,23.10
2006,06,26,08,18,23.10
2006,06,26,08,19,23.20
2006,06,26,08,20,23.30
2006,06,26,08,21,23.30
2006,06,26,08,22,23.20
2006,06,26,08,23,23.10
2006,06,26,08,24,23.00
2006,06,26,08,25,22.90
2006,06,26,08,26,22.90
2006,06,26,08,27,22.90
2006,06,26,08,28,22.90
2006,06,26,08,29,22.90
2006,06,26,08,30,22.90
2006,06,26,08,31,22.90
2006,06,26,08,32,22.90
2006,06,26,08,33,22.90
2006,06,26,08,34,22.80
2006,06,26,08,35,22.80
2006,06,26,08,36,22.80
2006,06,26,08,37,22.80
2006,06,26,08,38,22.80
2006,06,26,08,39,22.80
2006,06,26,08,40,22.80
2006,06,26,08,41,22.80
2006,06,26,08,42,22.90
2006,06,26,08,43,22.90
2006,06,26,08,44,22.90
2006,06,26,08,45,22.90
2006,06,26,08,46,22.90
2006,06,26,08,47,22.90
2006,06,26,08,48,22.90
2006,06,26,08,49,22.90
2006,06,26,08,50,22.90
2006,06,26,08,51,22.90
2006,06,26,08,52,22.90
2006,06,26,08,53,22.90
2006,06,26,08,54,22.90
2006,06,26,08,55,22.90
2006,06,26,08,56,22.90
2006,06,26,08,57,22.90
2006,06,26,08,58,22.90
2006,06,26,08,59,23.10
2006,06,26,09,00,23.10
2006,06,26,09,01,23.20
2006,06,26,09,02,23.30
2006,06,26,09,03,23.30
2006,06,26,09,04,23.20
2006,06,26,09,05,23.20
2006,06,26,09,06,23.30
2006,06,26,09,07,23.30
2006,06,26,09,08,23.30
2006,06,26,09,09,23.40
2006,06,26,09,10,23.40
2006,06,26,09,11,23.40
2006,06,26,09,12,23.40
2006,06,26,09,13,23.50
2006,06,26,09,14,23.60
2006,06,26,09,15,23.70
2006,06,26,09,16,23.60
2006,06,26,09,17,23.60
2006,06,26,09,18,23.50
2006,06,26,09,19,23.40
2006,06,26,09,20,23.40
2006,06,26,09,21,23.40
2006,06,26,09,22,23.30
2006,06,26,09,23,23.30
2006,06,26,09,24,23.40
2006,06,26,09,25,23.40
2006,06,26,09,26,23.30
2006,06,26,09,27,23.40
2006,06,26,09,28,23.40
2006,06,26,09,29,23.50
2006,06,26,09,30,23.60
2006,06,26,09,31,23.60
2006,06,26,09,32,23.50
2006,06,26,09,33,23.40
2006,06,26,09,34,23.40
2006,06,26,09,35,23.40
2006,06,26,09,36,23.50
2006,06,26,09,37,23.60
2006,06,26,09,38,23.60
2006,06,26,09,39,23.40
2006,06,26,09,40,23.40
2006,06,26,09,41,23.40
2006,06,26,09,42,23.40
2006,06,26,09,43,23.50
2006,06,26,09,44,23.60
2006,06,26,09,45,23.70
2006,06,26,09,46,23.70
2006,06,26,09,47,23.80
2006,06,26,09,48,23.90
2006,06,26,09,49,24.00
2006,06,26,09,50,24.10
2006,06,26,09,51,23.90
2006,06,26,09,52,23.90
2006,06,26,09,53,24.00
2006,06,26,09,54,24.00
2006,06,26,09,55,23.90
2006,06,26,09,56,23.90
2006,06,26,09,57,23.90
2006,06,26,09,58,23.90
2006,06,26,09,59,23.90
2006,06,26,10,00,23.90
2006,06,26,10,01,24.10
2006,06,26,10,02,24.10
2006,06,26,10,03,24.10
2006,06,26,10,04,24.10
2006,06,26,10,05,24.10
2006,06,26,10,06,24.10
2006,06,26,10,07,24.10
2006,06,26,10,08,24.10
2006,06,26,10,09,24.10
2006,06,26,10,10,24.20
2006,06,26,10,11,24.20
2006,06,26,10,12,24.30
2006,06,26,10,13,24.40
2006,06,26,10,14,24.40
2006,06,26,10,15,24.30
2006,06,26,10,16,24.30
2006,06,26,10,17,24.30
2006,06,26,10,18,24.40
2006,06,26,10,19,24.50
2006,06,26,10,20,24.50
2006,06,26,10,21,24.40
2006,06,26,10,22,24.30
2006,06,26,10,23,24.30
2006,06,26,10,24,24.20
2006,06,26,10,25,24.30
2006,06,26,10,26,24.40
2006,06,26,10,27,24.40
2006,06,26,10,28,24.50
2006,06,26,10,29,24.60
2006,06,26,10,30,24.70
2006,06,26,10,31,24.60
2006,06,26,10,32,24.50
2006,06,26,10,33,24.50
2006,06,26,10,34,24.60
2006,06,26,10,35,24.70
2006,06,26,10,36,24.80
2006,06,26,10,37,24.90
2006,06,26,10,38,25.00
2006,06,26,10,39,25.00
2006,06,26,10,40,25.10
2006,06,26,10,41,25.10
2006,06,26,10,42,25.00
2006,06,26,10,43,24.90
2006,06,26,10,44,24.80
2006,06,26,10,45,24.80
2006,06,26,10,46,24.80
2006,06,26,10,47,24.90
2006,06,26,10,48,25.00
2006,06,26,10,49,25.00
2006,06,26,10,50,24.90
2006,06,26,10,51,24.90
2006,06,26,10,52,24.80
2006,06,26,10,53,24.80
2006,06,26,10,54,24.80
2006,06,26,10,55,24.70
2006,06,26,10,56,24.70
2006,06,26,10,57,24.70
2006,06,26,10,58,24.70
2006,06,26,10,59,24.60
2006,06,26,11,00,24.60
2006,06,26,11,01,24.60
2006,06,26,11,02,24.70
2006,06,26,11,03,24.70
2006,06,26,11,04,24.80
2006,06,26,11,05,24.90
2006,06,26,11,06,24.90
2006,06,26,11,07,24.90
2006,06,26,11,08,24.80
2006,06,26,11,09,24.80
2006,06,26,11,10,24.90
2006,06,26,11,11,24.90
2006,06,26,11,12,24.90
2006,06,26,11,13,25.00
2006,06,26,11,14,25.00
2006,06,26,11,15,25.10
2006,06,26,11,16,25.10
2006,06,26,11,17,25.20
2006,06,26,11,18,25.20
2006,06,26,11,19,25.30
2006,06,26,11,20,25.30
2006,06,26,11,21,25.40
2006,06,26,11,22,25.50
2006,06,26,11,23,25.50
2006,06,26,11,24,25.40
2006,06,26,11,25,25.40
2006,06,26,11,26,25.30
2006,06,26,11,27,25.30
2006,06,26,11,28,25.30
2006,06,26,11,29,25.40
2006,06,26,11,30,25.50
2006,06,26,11,31,25.60
2006,06,26,11,32,25.60
2006,06,26,11,33,25.60
2006,06,26,11,34,25.70
2006,06,26,11,35,25.60
2006,06,26,11,36,25.60
2006,06,26,11,37,25.60
2006,06,26,11,38,25.60
2006,06,26,11,39,25.60
2006,06,26,11,40,25.60
2006,06,26,11,41,25.60
2006,06,26,11,42,25.70
2006,06,26,11,43,25.80
2006,06,26,11,44,25.80
2006,06,26,11,45,25.90
2006,06,26,11,46,25.90
2006,06,26,11,47,25.90
2006,06,26,11,48,25.90
2006,06,26,11,49,25.90
2006,06,26,11,50,25.90
2006,06,26,11,51,26.00
2006,06,26,11,52,25.90
2006,06,26,11,53,26.00
2006,06,26,11,54,26.00
2006,06,26,11,55,25.90
2006,06,26,11,56,25.90
2006,06,26,11,57,25.90
2006,06,26,11,58,25.90
2006,06,26,11,59,26.00
2006,06,26,12,00,26.00
2006,06,26,12,01,26.00
2006,06,26,12,02,26.00
2006,06,26,12,03,26.10
2006,06,26,12,04,26.10
2006,06,26,12,05,26.20
2006,06,26,12,06,26.20
2006,06,26,12,07,26.20
2006,06,26,12,08,26.10
2006,06,26,12,09,26.10
2006,06,26,12,10,26.10
2006,06,26,12,11,26.20
2006,06,26,12,12,26.30
2006,06,26,12,13,26.40
2006,06,26,12,14,26.40
2006,06,26,12,15,26.40
2006,06,26,12,16,26.60
2006,06,26,12,17,26.60
2006,06,26,12,18,26.60
2006,06,26,12,19,26.60
2006,06,26,12,20,26.70
2006,06,26,12,21,26.70
2006,06,26,12,22,26.70
2006,06,26,12,23,26.70
2006,06,26,12,24,26.60
2006,06,26,12,25,26.60
2006,06,26,12,26,26.60
2006,06,26,12,27,26.60
2006,06,26,12,28,26.60
2006,06,26,12,29,26.60
2006,06,26,12,30,26.60
2006,06,26,12,31,26.60
2006,06,26,12,32,26.60
2006,06,26,12,33,26.70
2006,06,26,12,34,26.70
2006,06,26,12,35,26.70
2006,06,26,12,36,26.80
2006,06,26,12,37,26.80
2006,06,26,12,38,26.90
2006,06,26,12,39,26.90
2006,06,26,12,40,26.90
2006,06,26,12,41,26.90
2006,06,26,12,42,26.80
2006,06,26,12,43,26.80
2006,06,26,12,44,26.80
2006,06,26,12,45,26.60
2006,06,26,12,46,26.70
2006,06,26,12,47,26.80
2006,06,26,12,48,26.90
2006,06,26,12,49,27.10
2006,06,26,12,50,27.20
2006,06,26,12,51,27.10
2006,06,26,12,52,27.10
2006,06,26,12,53,27.10
2006,06,26,12,54,27.10
2006,06,26,12,55,27.10
2006,06,26,12,56,27.10
2006,06,26,12,57,27.10
2006,06,26,12,58,27.10
2006,06,26,12,59,27.10
2006,06,26,13,00,27.10
2006,06,26,13,01,27.10
2006,06,26,13,02,27.20
2006,06,26,13,03,27.30
2006,06,26,13,04,27.30
2006,06,26,13,05,27.30
2006,06,26,13,06,27.40
2006,06,26,13,07,27.50
2006,06,26,13,08,27.60
2006,06,26,13,09,27.70
2006,06,26,13,10,27.70
2006,06,26,13,11,27.90
2006,06,26,13,12,28.00
2006,06,26,13,13,28.10
2006,06,26,13,14,28.10
2006,06,26,13,15,28.00
2006,06,26,13,16,28.00
2006,06,26,13,17,28.00
2006,06,26,13,18,28.10
2006,06,26,13,19,28.10
2006,06,26,13,20,28.10
2006,06,26,13,21,28.20
2006,06,26,13,22,28.10
2006,06,26,13,23,28.10
2006,06,26,13,24,28.10
2006,06,26,13,25,28.10
2006,06,26,13,26,27.90
2006,06,26,13,27,27.70
2006,06,26,13,28,27.70
2006,06,26,13,29,27.70
2006,06,26,13,30,27.70
2006,06,26,13,31,27.70
2006,06,26,13,32,27.80
2006,06,26,13,33,27.90
2006,06,26,13,34,27.90
2006,06,26,13,35,27.90
2006,06,26,13,36,27.90
2006,06,26,13,37,27.90
2006,06,26,13,38,27.90
2006,06,26,13,39,28.00
2006,06,26,13,40,28.00
2006,06,26,13,41,27.80
2006,06,26,13,42,27.60
2006,06,26,13,43,27.50
2006,06,26,13,44,27.40
2006,06,26,13,45,27.50
2006,06,26,13,46,27.60
2006,06,26,13,47,27.80
2006,06,26,13,48,27.80
2006,06,26,13,49,27.70
2006,06,26,13,50,27.70
2006,06,26,13,51,27.80
2006,06,26,13,52,27.80
2006,06,26,13,53,27.90
2006,06,26,13,54,28.00
2006,06,26,13,55,28.10
2006,06,26,13,56,28.10
2006,06,26,13,57,28.00
2006,06,26,13,58,28.00
2006,06,26,13,59,28.10
2006,06,26,14,00,28.00
2006,06,26,14,01,27.80
2006,06,26,14,02,27.80
2006,06,26,14,03,27.80
2006,06,26,14,04,27.90
2006,06,26,14,05,27.90
2006,06,26,14,06,28.00
2006,06,26,14,07,28.00
2006,06,26,14,08,28.10
2006,06,26,14,09,28.20
2006,06,26,14,10,28.20
2006,06,26,14,11,28.40
2006,06,26,14,12,28.50
2006,06,26,14,13,28.60
2006,06,26,14,14,28.60
2006,06,26,14,15,28.60
2006,06,26,14,16,28.60
2006,06,26,14,17,28.50
2006,06,26,14,18,28.40
2006,06,26,14,19,28.40
2006,06,26,14,20,28.60
2006,06,26,14,21,28.60
2006,06,26,14,22,28.50
2006,06,26,14,23,28.40
2006,06,26,14,24,28.50
2006,06,26,14,25,28.60
2006,06,26,14,26,28.50
2006,06,26,14,27,28.40
2006,06,26,14,28,28.40
2006,06,26,14,29,28.40
2006,06,26,14,30,28.40
2006,06,26,14,31,28.50
2006,06,26,14,32,28.60
2006,06,26,14,33,28.70
2006,06,26,14,34,28.70
2006,06,26,14,35,28.70
2006,06,26,14,36,28.80
2006,06,26,14,37,28.80
2006,06,26,14,38,28.80
2006,06,26,14,39,28.80
2006,06,26,14,40,28.80
2006,06,26,14,41,28.80
2006,06,26,14,42,28.80
2006,06,26,14,43,28.90
2006,06,26,14,44,29.00
2006,06,26,14,45,29.10
2006,06,26,14,46,29.20
2006,06,26,14,47,29.20
2006,06,26,14,48,29.20
2006,06,26,14,49,29.30
2006,06,26,14,50,29.30
2006,06,26,14,51,29.30
2006,06,26,14,52,29.30
2006,06,26,14,53,29.30
2006,06,26,14,54,29.40
2006,06,26,14,55,29.40
2006,06,26,14,56,29.40
2006,06,26,14,57,29.40
2006,06,26,14,58,29.50
2006,06,26,14,59,29.60
2006,06,26,15,00,29.60
2006,06,26,15,01,29.50
2006,06,26,15,02,29.40
2006,06,26,15,03,29.30
2006,06,26,15,04,29.30
2006,06,26,15,05,29.30
2006,06,26,15,06,29.30
2006,06,26,15,07,29.30
2006,06,26,15,08,29.20
2006,06,26,15,09,29.10
2006,06,26,15,10,29.10
2006,06,26,15,11,28.90
2006,06,26,15,12,28.90
2006,06,26,15,13,29.00
2006,06,26,15,14,29.10
2006,06,26,15,15,29.20
2006,06,26,15,16,29.20
2006,06,26,15,17,29.20
2006,06,26,15,18,29.30
2006,06,26,15,19,29.30
2006,06,26,15,20,29.30
2006,06,26,15,21,29.30
2006,06,26,15,22,29.40
2006,06,26,15,23,29.50
2006,06,26,15,24,29.60
2006,06,26,15,25,29.70
2006,06,26,15,26,29.80
2006,06,26,15,27,29.80
2006,06,26,15,28,29.80
2006,06,26,15,29,29.80
2006,06,26,15,30,29.80
2006,06,26,15,31,29.80
2006,06,26,15,32,29.80
2006,06,26,15,33,29.70
2006,06,26,15,34,29.80
2006,06,26,15,35,29.90
2006,06,26,15,36,30.00
2006,06,26,15,37,30.10
2006,06,26,15,38,30.10
2006,06,26,15,39,30.10
2006,06,26,15,40,30.00
2006,06,26,15,41,29.80
2006,06,26,15,42,29.50
2006,06,26,15,43,29.10
2006,06,26,15,44,28.90
2006,06,26,15,45,28.70
2006,06,26,15,46,28.30
2006,06,26,15,47,27.80
2006,06,26,15,48,27.50
2006,06,26,15,49,27.40
2006,06,26,15,50,27.30
2006,06,26,15,51,27.10
2006,06,26,15,52,27.00
2006,06,26,15,53,26.80
2006,06,26,15,54,26.60
2006,06,26,15,55,26.60
2006,06,26,15,56,26.70
2006,06,26,15,57,26.80
2006,06,26,15,58,26.80
2006,06,26,15,59,26.90
2006,06,26,16,00,26.90
2006,06,26,16,01,26.90
2006,06,26,16,02,27.00
2006,06,26,16,03,27.20
2006,06,26,16,04,27.30
2006,06,26,16,05,27.30
2006,06,26,16,06,27.40
2006,06,26,16,07,27.50
2006,06,26,16,08,27.60
2006,06,26,16,09,27.70
2006,06,26,16,10,27.80
2006,06,26,16,11,27.90
2006,06,26,16,12,27.90
2006,06,26,16,13,28.00
2006,06,26,16,14,28.00
2006,06,26,16,15,28.00
2006,06,26,16,16,28.00
2006,06,26,16,17,27.90
2006,06,26,16,18,27.90
2006,06,26,16,19,27.80
2006,06,26,16,20,27.80
2006,06,26,16,21,27.80
2006,06,26,16,22,27.90
2006,06,26,16,23,27.90
2006,06,26,16,24,27.90
2006,06,26,16,25,27.90
2006,06,26,16,26,27.90
2006,06,26,16,27,27.90
2006,06,26,16,28,28.00
2006,06,26,16,29,28.10
2006,06,26,16,30,28.10
2006,06,26,16,31,28.10
2006,06,26,16,32,28.10
2006,06,26,16,33,28.20
2006,06,26,16,34,28.20
2006,06,26,16,35,28.30
2006,06,26,16,36,28.30
2006,06,26,16,37,28.30
2006,06,26,16,38,28.20
2006,06,26,16,39,28.20
2006,06,26,16,40,28.30
2006,06,26,16,41,28.40
2006,06,26,16,42,28.40
2006,06,26,16,43,28.40
2006,06,26,16,44,28.40
2006,06,26,16,45,28.30
2006,06,26,16,46,28.20
2006,06,26,16,47,28.00
2006,06,26,16,48,28.00
2006,06,26,16,49,27.90
2006,06,26,16,50,27.80
2006,06,26,16,51,27.80
2006,06,26,16,52,27.80
2006,06,26,16,53,27.80
2006,06,26,16,54,27.90
2006,06,26,16,55,27.80
2006,06,26,16,56,27.80
2006,06,26,16,57,27.70
2006,06,26,16,58,27.60
2006,06,26,16,59,27.60
2006,06,26,17,00,27.60
2006,06,26,17,01,27.50
2006,06,26,17,02,27.40
2006,06,26,17,03,27.30
2006,06,26,17,04,27.30
2006,06,26,17,05,27.20
2006,06,26,17,06,27.10
2006,06,26,17,07,27.10
2006,06,26,17,08,27.20
2006,06,26,17,09,27.10
2006,06,26,17,10,27.10
2006,06,26,17,11,27.10
2006,06,26,17,12,27.20
2006,06,26,17,13,27.20
2006,06,26,17,14,27.20
2006,06,26,17,15,27.20
2006,06,26,17,16,27.20
2006,06,26,17,17,27.10
2006,06,26,17,18,27.00
2006,06,26,17,19,26.90